Wetbulb
70.04 69.59 68.88 68.34 68.35 68.20 68.15 68.32 68.08 67.83 67.07 66.09 64.78 64.69 64.98 64.59 64.55 64.69 64.54 64.47 64.74 64.79 64.64 65.01 64.95 64.62 64.16 63.97 63.87 64.28 63.14 62.02
70.21 69.81 70.03 70.13 69.76 67.73 67.65 67.62 67.46 67.12 66.24 65.19 64.90 65.04 64.45 64.00 64.28 64.83 64.81 64.85 65.20 65.62 65.63 65.49 65.09 65.33 64.47 63.37 63.28 63.61 62.28 61.65
69.57 69.53 69.33 69.39 69.04 68.17 67.41 67.48 66.99 66.39 66.06 64.95 64.29 66.04 66.02 65.39 64.37 64.52 64.85 64.62 64.57 64.74 64.19 64.28 64.56 64.72 65.12 63.16 63.10 61.35 61.53 60.63
69.17 69.00 68.92 68.80 66.95 67.78 67.01 65.52 65.85 66.48 67.03 66.61 66.61 67.03 67.00 64.10 64.40 64.45 64.39 64.12 64.68 64.16 63.57 63.79 63.65 62.99 62.90 64.92 61.04 61.05 60.23 59.80
68.23 69.46 69.58 67.38 66.56 66.11 65.39 65.41 66.38 67.39 67.78 67.36 67.49 67.12 67.71 66.50 65.57 66.04 66.17 63.41 64.72 63.97 63.95 63.22 63.21 62.69 61.73 61.61 60.72 60.18 59.00 58.78
67.20 67.53 68.88 67.43 66.11 65.17 65.18 65.69 66.66 66.57 67.35 67.79 67.68 66.53 66.81 66.02 64.84 65.22 65.52 64.65 63.93 63.65 62.89 63.17 62.44 61.52 60.55 60.10 59.68 58.88 58.19 58.15
66.70 67.65 67.18 66.66 65.74 65.83 66.81 66.90 66.82 66.91 66.89 65.88 66.05 65.90 65.36 64.53 64.45 64.48 64.01 63.40 62.98 62.47 61.87 60.73 59.65 59.83 59.68 58.62 58.37 57.90 57.91 57.11
66.74 66.47 66.72 66.04 65.99 67.12 65.67 64.77 64.36 63.70 64.13 64.56 65.34 65.23 64.54 62.19 62.10 62.49 61.58 62.04 60.86 60.11 59.05 58.24 58.01 58.69 58.04 57.90 57.36 57.26 57.20 57.14
66.42 66.79 66.45 66.12 66.82 64.44 62.96 61.13 61.85 61.58 62.73 64.31 63.76 63.72 62.26 61.13 60.63 59.80 58.56 60.39 59.71 59.14 58.88 57.87 56.81 56.61 56.55 56.31 55.90 55.90 56.01 55.82
67.21 66.05 66.38 66.75 65.32 63.37 61.72 62.15 62.34 60.49 59.49 59.80 59.24 59.59 59.69 59.07 58.25 59.08 58.90 58.08 57.62 57.12 56.32 55.35 54.73 54.39 54.18 54.25 53.87 53.77 54.28 54.71
66.78 66.81 66.38 65.52 64.61 63.57 64.42 63.66 62.93 61.64 60.59 60.07 59.46 58.66 59.05 59.42 58.65 57.87 58.05 57.07 56.62 55.76 55.08 54.64 53.40 53.04 52.47 52.72 53.47 52.69 53.55 52.58
67.38 66.69 65.64 64.55 63.52 64.28 64.44 63.36 61.97 61.33 61.08 59.81 59.07 58.37 57.86 58.25 58.00 56.99 56.55 55.71 55.27 55.09 54.23 54.12 52.97 52.15 50.33 50.58 51.93 51.36 51.69 51.97
64.62 64.06 64.19 64.32 64.23 63.22 61.08 59.99 60.53 60.29 59.32 58.18 57.74 57.20 56.54 56.47 56.35 56.16 55.95 54.64 54.11 54.13 53.09 51.40 49.43 50.68 48.46 48.74 48.77 50.24 51.73 50.94
63.94 64.62 64.40 64.97 63.92 62.19 61.49 61.32 60.76 58.82 57.96 57.35 56.68 56.38 56.01 55.47 55.35 54.73 54.59 53.23 53.00 52.17 51.12 49.24 48.78 49.28 46.29 45.90 42.34 44.51 47.42 48.67
64.65 64.48 64.34 63.17 62.21 61.91 61.63 60.41 58.27 57.06 56.67 56.23 55.86 55.70 55.15 54.84 54.59 54.07 53.61 52.46 50.14 50.89 50.22 49.26 46.22 47.54 48.22 44.54 40.16 38.85 41.78 45.03
62.89 62.07 61.16 61.14 60.79 59.28 58.49 58.41 56.19 56.09 55.98 55.79 55.55 55.35 54.78 54.08 53.04 52.68 52.04 51.07 49.94 49.53 49.45 48.38 47.16 44.37 45.98 46.18 45.85 43.76 38.83 37.51
60.48 59.30 58.11 58.49 58.89 58.84 57.77 56.06 55.52 55.05 55.52 53.27 53.62 52.67 51.00 49.66 49.06 48.97 49.40 50.06 50.09 49.74 49.01 47.90 47.09 45.31 44.12 43.16 42.71 42.03 41.73 38.10
58.14 57.42 57.09 57.54 57.30 56.80 55.65 53.96 52.63 51.51 49.52 48.03 47.48 47.26 47.45 47.78 47.40 48.04 48.23 48.94 49.31 49.07 48.51 47.45 46.15 44.87 43.89 42.64 40.64 38.55 37.56 37.24
56.87 56.28 55.12 55.66 54.82 53.53 52.44 50.36 48.89 47.20 46.67 45.97 45.71 45.51 45.70 46.31 46.82 47.46 47.68 48.15 48.68 48.02 46.66 45.51 45.20 43.29 42.60 41.18 41.25 40.23 40.20 38.57
55.75 55.23 54.08 53.10 51.37 50.00 49.02 47.63 46.04 46.90 46.62 46.39 45.79 45.23 45.47 46.19 46.50 47.69 48.25 48.10 47.29 46.48 45.91 45.65 44.64 43.36 42.19 41.61 40.85 40.60 40.48 39.37
MSLP
1016.38 1017.33 1017.87 1018.33 1018.96 1019.29 1019.70 1020.05 1020.32 1020.59 1020.81 1021.03 1021.06 1021.12 1021.10 1021.50 1021.51 1021.64 1021.62 1021.61 1021.64 1021.42 1021.45 1021.41 1021.15 1020.96 1020.99 1020.86 1020.21 1019.92 1019.31 1018.11
1016.59 1017.37 1017.47 1017.97 1018.88 1019.56 1019.94 1020.29 1020.49 1020.81 1021.02 1021.19 1021.22 1021.26 1021.35 1021.64 1021.65 1021.75 1021.83 1021.85 1021.68 1021.60 1021.63 1021.41 1021.12 1020.76 1020.70 1020.59 1019.93 1019.71 1019.01 1018.10
1016.90 1017.36 1017.48 1017.82 1018.71 1019.66 1019.96 1020.16 1020.45 1020.82 1020.98 1021.03 1020.94 1020.41 1020.60 1020.90 1021.44 1021.78 1021.98 1021.87 1021.53 1021.55 1021.42 1021.22 1020.78 1020.39 1020.68 1020.14 1019.80 1019.22 1019.06 1018.53
1017.20 1017.05 1017.37 1017.40 1017.79 1018.86 1019.12 1019.74 1019.62 1019.90 1020.23 1020.33 1019.73 1020.57 1020.72 1021.05 1021.05 1021.54 1021.69 1021.63 1021.43 1021.30 1021.15 1020.79 1020.72 1019.80 1019.70 1019.82 1019.54 1019.78 1018.99 1018.87
1017.40 1017.81 1017.93 1017.60 1018.27 1018.49 1018.69 1019.25 1019.86 1020.34 1020.60 1020.34 1020.42 1020.56 1020.61 1020.61 1020.49 1020.37 1020.60 1021.05 1020.45 1020.72 1020.41 1020.18 1020.44 1020.42 1020.24 1020.14 1020.03 1019.88 1019.34 1019.21
1017.96 1018.27 1018.01 1017.73 1018.23 1018.39 1019.07 1019.54 1019.73 1019.72 1020.26 1020.51 1020.52 1020.51 1020.80 1020.84 1020.63 1020.68 1020.61 1020.51 1020.76 1020.56 1020.42 1020.49 1020.30 1020.24 1020.27 1020.26 1020.18 1020.06 1019.97 1019.79
1017.61 1017.93 1018.03 1018.56 1018.51 1019.10 1019.32 1020.07 1020.60 1020.98 1021.44 1021.65 1021.55 1021.46 1021.61 1021.71 1021.69 1021.36 1021.21 1021.11 1020.93 1020.78 1020.56 1020.55 1020.44 1020.22 1020.21 1020.09 1020.29 1020.27 1020.19 1020.05
1016.99 1017.64 1018.18 1018.46 1018.97 1019.51 1020.03 1020.78 1021.54 1021.65 1021.75 1021.96 1021.69 1021.79 1022.12 1022.05 1021.80 1021.49 1021.98 1021.99 1021.75 1021.47 1021.23 1021.07 1020.70 1020.26 1020.11 1020.10 1020.36 1020.35 1020.24 1020.35
1017.03 1017.62 1018.04 1018.46 1019.02 1020.09 1020.78 1020.41 1022.04 1021.83 1021.73 1022.02 1022.19 1022.21 1022.29 1022.28 1022.14 1022.41 1022.68 1022.20 1022.10 1021.69 1021.40 1021.04 1020.67 1020.39 1020.36 1020.22 1020.24 1019.97 1019.76 1019.99
1017.00 1017.74 1018.15 1018.66 1019.81 1020.66 1021.14 1020.62 1021.77 1021.87 1022.47 1022.46 1022.58 1022.42 1022.53 1022.50 1022.52 1022.35 1022.38 1022.20 1022.00 1021.93 1021.59 1021.38 1021.37 1021.02 1020.68 1020.53 1020.33 1020.11 1019.87 1019.90
1017.16 1017.98 1018.42 1019.42 1020.35 1020.94 1020.89 1021.07 1021.04 1021.70 1022.14 1022.24 1022.47 1022.30 1022.19 1022.10 1022.01 1022.46 1022.71 1022.17 1022.07 1022.08 1021.97 1021.96 1021.60 1021.34 1020.98 1020.70 1020.57 1020.11 1019.77 1019.69
1017.04 1017.96 1018.90 1019.90 1020.46 1020.44 1020.44 1020.68 1021.02 1021.38 1021.46 1021.79 1021.98 1022.11 1022.48 1022.28 1022.21 1022.86 1022.80 1022.22 1022.16 1022.39 1022.58 1022.27 1021.95 1021.37 1021.11 1021.02 1020.98 1020.10 1019.95 1019.70
1017.82 1018.66 1019.39 1019.73 1019.64 1019.70 1020.10 1020.23 1020.68 1021.14 1021.43 1022.12 1022.33 1022.60 1022.61 1022.76 1022.46 1022.47 1022.57 1022.58 1022.70 1022.73 1022.60 1022.44 1022.06 1021.72 1021.09 1021.09 1020.97 1020.67 1019.73 1019.13
1018.14 1018.51 1019.00 1018.84 1018.91 1019.29 1019.43 1019.80 1020.54 1020.98 1021.73 1022.39 1022.57 1022.83 1022.77 1022.76 1023.21 1023.08 1023.00 1023.04 1022.91 1022.81 1022.69 1022.66 1022.36 1022.15 1021.69 1021.28 1020.89 1020.66 1019.84 1019.66
1017.51 1017.99 1018.30 1018.45 1018.95 1019.55 1019.87 1020.45 1021.14 1021.24 1021.63 1021.95 1022.79 1023.26 1023.30 1023.33 1023.35 1023.41 1023.44 1023.30 1023.01 1022.99 1022.81 1022.96 1022.71 1022.54 1022.39 1022.09 1021.46 1020.72 1020.68 1020.78
1017.37 1018.00 1018.58 1019.24 1019.42 1019.44 1019.69 1019.87 1020.16 1021.25 1021.77 1022.29 1022.70 1023.00 1023.23 1023.22 1023.19 1023.41 1023.48 1023.34 1023.14 1022.96 1022.57 1023.11 1023.32 1022.79 1022.60 1022.42 1022.29 1021.99 1021.34 1020.55
1018.04 1018.59 1019.13 1019.63 1019.92 1020.21 1020.43 1020.90 1021.42 1021.92 1022.38 1022.77 1022.68 1022.72 1023.01 1023.17 1023.22 1023.31 1023.28 1023.26 1023.00 1023.09 1023.22 1023.33 1023.35 1023.13 1022.91 1022.75 1022.59 1022.46 1022.14 1021.69
1018.61 1018.93 1019.53 1020.11 1020.60 1021.16 1021.58 1021.96 1022.25 1022.42 1022.82 1022.99 1022.99 1023.18 1023.22 1023.35 1023.49 1023.56 1023.36 1023.00 1022.97 1022.88 1023.04 1023.35 1023.66 1023.74 1023.37 1023.08 1023.01 1022.73 1022.44 1022.20
1018.74 1019.29 1020.06 1020.69 1021.21 1021.69 1022.25 1022.76 1023.14 1023.29 1023.53 1023.47 1023.56 1023.46 1023.45 1023.49 1023.70 1023.46 1023.17 1022.81 1022.69 1023.06 1023.66 1023.90 1024.06 1023.74 1023.56 1023.55 1023.22 1023.05 1022.98 1022.87
1018.78 1019.45 1020.15 1020.95 1021.56 1022.10 1022.69 1023.16 1023.54 1023.49 1023.95 1023.98 1023.80 1023.74 1023.63 1023.75 1023.61 1023.40 1023.10 1022.90 1023.44 1023.89 1024.05 1024.04 1023.84 1023.56 1023.37 1023.56 1023.37 1023.19 1023.01 1022.79
Wind_Speed
14 12 11 14 13 13 12 11 11 10 9 8 7 7 7 5 5 5 6 6 6 6 6 7 7 6 7 8 10 13 13 8
12 11 12 12 12 12 12 10 10 8 8 6 4 6 5 4 4 6 5 5 6 7 7 7 8 8 4 6 12 11 11 10
10 11 10 11 13 10 11 11 9 8 9 6 7 5 5 8 8 4 4 4 4 5 6 7 11 13 8 9 10 9 11 9
8 9 9 6 10 9 8 7 6 5 4 4 3 3 4 5 0 4 5 5 7 7 7 10 10 9 2 6 8 9 9 9
10 8 5 8 8 6 5 4 5 5 4 3 6 3 3 3 2 4 2 5 5 5 5 5 8 7 8 7 8 9 8 7
9 8 7 7 6 4 5 6 5 3 7 1 2 3 1 5 5 8 4 4 5 7 6 6 7 8 7 8 9 8 7 7
11 12 9 7 6 6 8 8 7 6 5 5 4 5 4 4 7 8 6 7 8 7 9 9 10 9 9 7 9 10 9 7
13 12 11 11 10 11 9 8 6 4 2 3 3 3 2 4 4 5 6 7 8 8 7 7 8 10 9 9 9 9 8 8
12 12 12 11 13 10 7 9 1 3 4 6 5 3 4 4 4 4 4 5 6 7 7 9 10 9 11 11 11 12 10 10
13 10 12 12 12 8 2 7 3 4 2 3 3 3 3 2 2 4 4 6 6 7 8 7 9 11 10 10 10 11 13 12
13 12 13 12 11 5 4 5 3 4 4 4 4 3 1 3 3 4 6 6 5 6 8 9 10 10 11 11 11 12 11 11
12 10 11 10 6 5 3 4 5 6 3 4 1 5 3 3 2 3 6 6 7 9 10 10 11 11 12 10 12 11 11 11
13 10 10 9 7 6 6 6 6 4 5 4 3 3 3 4 5 6 7 7 9 10 10 12 11 11 10 9 10 14 12 8
13 11 11 10 7 6 6 6 4 5 5 4 5 5 6 5 6 8 9 8 10 11 11 9 9 10 11 10 11 11 12 12
14 13 12 8 9 6 4 5 5 5 5 5 6 6 7 8 8 8 9 9 9 10 9 10 10 9 12 9 11 11 12 11
13 12 10 7 7 6 5 1 3 7 3 5 4 2 5 8 8 9 10 9 11 10 9 6 10 9 9 9 11 12 12 13
10 10 9 8 7 6 4 5 4 4 2 3 5 6 9 11 11 12 10 9 10 9 8 9 8 9 9 10 10 9 10 11
10 11 10 9 9 9 8 7 5 4 4 5 5 6 7 9 11 11 11 10 9 8 7 8 8 10 8 7 8 9 9 10
11 12 11 11 10 10 9 7 6 6 6 5 6 5 6 8 10 11 10 10 8 6 6 6 9 8 7 7 8 8 8 9
12 13 12 11 10 10 7 7 3 2 4 5 4 5 6 10 10 10 11 8 5 4 7 8 8 8 7 8 8 7 8 8
Wind_Direction
140 148 131 93 94 98 96 94 90 83 81 87 91 89 81 80 78 63 43 29 17 18 8 4 1 353 353 332 305 304 305 346
131 142 142 132 120 100 100 100 97 98 98 97 113 128 134 172 160 72 21 2 357 352 340 335 313 283 264 289 294 279 311 324
132 141 129 136 128 125 129 125 133 141 142 149 208 201 159 181 85 52 343 327 320 314 313 293 276 264 237 245 274 8 324 2
106 105 119 136 124 153 115 131 142 127 104 139 194 45 32 318 236 190 231 261 258 243 249 259 252 347 303 246 356 347 314 335
117 120 137 139 121 140 143 137 136 108 96 329 71 0 29 314 293 212 336 196 288 280 268 326 347 333 344 339 342 329 334 334
121 125 165 104 125 131 106 111 127 94 68 331 107 253 341 17 334 345 301 339 334 319 314 327 317 330 336 332 329 325 334 318
151 154 150 140 137 104 77 71 56 43 38 45 19 342 18 5 5 330 327 327 319 318 318 342 330 316 335 324 326 321 323 309
149 150 147 151 119 106 107 66 38 30 33 318 313 258 307 344 289 300 341 326 334 321 340 314 318 318 317 321 314 306 304 311
154 143 146 144 128 127 106 107 268 5 1 359 346 345 17 358 1 12 318 305 301 309 324 330 326 318 319 318 317 306 307 308
147 147 150 141 141 125 173 123 160 96 104 103 64 37 44 345 268 241 350 301 323 333 324 332 325 328 317 311 311 307 306 304
153 161 148 144 141 133 172 146 127 135 146 151 185 150 101 302 21 7 318 315 325 317 337 326 322 316 309 312 317 303 302 304
148 168 123 151 155 167 139 155 146 169 147 91 80 88 31 328 96 345 318 325 331 345 319 318 312 303 307 327 297 312 314 293
128 145 156 173 181 181 153 155 140 138 110 85 101 54 54 15 347 332 333 331 334 315 309 316 315 314 305 297 310 297 293 317
147 163 171 189 152 156 174 144 146 107 110 101 71 29 20 340 352 331 344 322 317 314 316 309 307 312 318 311 308 308 293 348
160 159 163 152 121 120 117 99 138 172 155 155 75 19 354 340 336 327 320 315 317 319 308 315 308 316 306 314 304 307 317 306
135 135 121 133 189 138 154 146 104 52 56 75 327 328 312 319 323 317 316 314 310 304 309 326 300 306 301 307 313 311 308 308
129 133 128 131 103 122 135 87 105 90 64 329 317 345 339 337 331 334 316 307 304 309 303 307 303 302 320 317 320 309 308 310
141 139 124 113 100 87 83 79 54 21 22 339 0 332 340 339 336 323 310 296 294 294 294 289 335 319 303 306 307 315 309 312
143 137 131 124 115 104 94 82 51 38 351 3 335 342 338 336 331 320 313 308 298 312 327 303 290 286 316 301 298 311 321 304
151 154 141 131 122 112 101 66 89 61 19 348 344 337 334 333 323 315 310 310 1 318 303 297 302 291 288 302 292 299 297 302